This is the latest recevied weather packets stored in our database for station/object OK2PAT-12. If no packets are shown the sender has not sent any weather packets the latest 1 day(s).
| Time | Temp. | Humidity | Pressure | Rain* | Wind** | Luminosity | Snow |
|---|---|---|---|---|---|---|---|
| 1778099838 | 18.33° C | 55% | 1007.2 hPa | - | - | - | - |
| 1778099238 | 18.33° C | 55% | 1007.2 hPa | - | - | - | - |
| 1778098638 | 18.33° C | 55% | 1007.1 hPa | - | - | - | - |
| 1778098038 | 18.33° C | 55% | 1007 hPa | - | - | - | - |
| 1778097438 | 18.33° C | 56% | 1007 hPa | - | - | - | - |
| 1778096838 | 18.33° C | 56% | 1007 hPa | - | - | - | - |
| 1778095638 | 18.33° C | 55% | 1007 hPa | - | - | - | - |
| 1778094438 | 18.89° C | 55% | 1006.7 hPa | - | - | - | - |
| 1778093838 | 18.89° C | 55% | 1006.5 hPa | - | - | - | - |
| 1778093238 | 18.89° C | 54% | 1006.4 hPa | - | - | - | - |
| 1778091883 | 19.44° C | 52% | 1006.3 hPa | - | - | - | - |
| 1778090220 | 20.56° C | 50% | 1006.3 hPa | - | - | - | - |
| 1778089620 | 21.11° C | 49% | 1006.4 hPa | - | - | - | - |
| 1778089020 | 21.67° C | 48% | 1006.5 hPa | - | - | - | - |
| 1778088420 | 21.67° C | 47% | 1006.5 hPa | - | - | - | - |
| 1778087820 | 22.22° C | 46% | 1006.6 hPa | - | - | - | - |
| 1778087220 | 22.22° C | 45% | 1006.6 hPa | - | - | - | - |
| 1778086620 | 22.78° C | 46% | 1006.6 hPa | - | - | - | - |
| 1778086020 | 22.78° C | 46% | 1006.6 hPa | - | - | - | - |
| 1778085420 | 22.78° C | 45% | 1006.6 hPa | - | - | - | - |
| 1778084820 | 23.33° C | 45% | 1006.8 hPa | - | - | - | - |
| 1778083020 | 22.78° C | 46% | 1007.3 hPa | - | - | - | - |
| 1778081220 | 23.89° C | 44% | 1007.4 hPa | - | - | - | - |
| 1778078220 | 25.56° C | 39% | 1007.8 hPa | - | - | - | - |
| 1778057819 | 21.11° C | 51% | 1008.7 hPa | - | - | - | - |
* Rain since midnight (hover to see other rain measurements)
** Current wind speed in m/s (hover to see current wind gust speed)